User: anonymous   Login
Location: Unspecified
(0.0000°N, 0.0000°E)
Time: 19:22:08
(UTC+00:00)
Language:

STPSAT 2 (USA 217) - Orbit

View from above orbital plane
View from above orbital plane
View from above satellite
View from above satellite

Ground track
Ground track

The orbit data is extracted from the following two-line orbital elements,

1 37222U 10062A   19064.74078329 0.00000050  00000-0  68373-5 0    05
2 37222  71.9631 295.8315 0017500  64.5498 295.4502 14.78401707    03
Epoch (UTC): 05 March 2019 17:46:43
Eccentricity: 0.0017500
inclination: 71.9631°
perigee height: 622 km
apogee height: 646 km
right ascension of ascending node: 295.8315°
argument of perigee: 64.5498°
revolutions per day: 14.78401707
mean anomaly at epoch: 295.4502°
orbit number at epoch: 0

The dashed part of the orbit path shows where the satellite is in the earth's shadow,  

DLR